AirNav   Pilot Hours Calculator
 
 363 users online  

8M8 Eagle II Airport
Lewiston, Michigan, USA

GOING TO LEWISTON?


FAA INFORMATION EFFECTIVE 05 NOVEMBER 2020

Location

FAA Identifier: 8M8
Lat/Long: 44-48-23.5000N 084-16-34.3000W
44-48.391667N 084-16.571667W
44.8065278,-84.2761944
(estimated)
Elevation: 1218 ft. / 371 m (estimated)
Variation: 05W (1985)
From city: 5 miles SE of LEWISTON, MI
Time zone: UTC -5 (UTC -4 during Daylight Saving Time)
Zip code: 49756

Airport Operations

Airport use: Open to the public
Activation date: 07/1989
Control tower: no
ARTCC: MINNEAPOLIS CENTER
FSS: LANSING FLIGHT SERVICE STATION
NOTAMs facility: LAN (NOTAM-D service available)
Attendance: UNATNDD
Wind indicator: lighted
Segmented circle: no
Lights: SS-SR
Beacon: white-green (lighted land airport)
ACTVT ROTG BCN - CTAF.
Landing fee: yes

Airport Communications

CTAF/UNICOM: 122.8

Nearby radio navigation aids

VOR radial/distance  VOR name  Freq  Var
CGGr075/(20.7)GRAYLING VOR109.8006W
GLRr130/22.0GAYLORD VOR/DME109.2006W
APNr249/34.7ALPENA VORTAC108.8007W

 
NDB name  Hdg/Dist  Freq  Var  ID
GRAYLING088/23.835906WGYG --. -.-- --.

Airport Services

Parking: tiedowns

Runway Information

Runway 18/36

Dimensions: 5047 x 75 ft. / 1538 x 23 m
Surface: asphalt, in poor condition
LARGE CRACKS IN PAVEMENT.
Weight bearing capacity: 
Single wheel: 15.0
Runway edge lights: medium intensity
RUNWAY 18  RUNWAY 36
Latitude: 44-48.805167N44-47.979167N
Longitude: 084-16.634333W084-16.509333W
Elevation: 1212.0 ft.1210.0 ft.
Traffic pattern: leftleft
Displaced threshold: no400 ft.
Markings: basic, in good conditionbasic, in good condition
Visual slope indicator: 2-light PAPI on left (3.00 degrees glide path)
Touchdown point: yes, no lightsyes, no lights
Obstructions: 50 ft. trees, 201 ft. from runway, 194 ft. right of centerline
50 FT. TREES, 0-199 FT. DSTC, 164 FT L AND 194 FT. R OF CNTRLN.
50 ft. trees, 201 ft. from runway, 220 ft. right of centerline
50 FT. TREES, 0-199 FT. DSTC, 220 FT R/L.

Airport Ownership and Management from official FAA records

Ownership: Privately-owned
Owner: GARY VOLLMAR
412 MONARCH TR
LEWISTON, MI 49756
Phone 810-444-8640
Manager: GARY VOLLMAR
412 MONARCH TR
LEWISTON, MI 49756
Phone 810-444-8640

Airport Operational Statistics

Aircraft operations: 100/year *
50% transient general aviation
50% military
* for 12-month period ending 31 December 2016

Additional Remarks

FENCE AROUND AIRPORT - ACCESS 5-3-2-1. KEEP GATE CLSD AND LOCKED.
NON-AVIATION RELATED CARGO OPS ON NORTH RAMP. NO ACFT PARKING. ACFT USE WEST RAMP.
VEHICLES CROSSING RY.
FOR CD CTC MINNEAPOLIS ARTCC AT 651-463-5588.

Instrument Procedures

There are no published instrument procedures at 8M8.

Some nearby airports with instrument procedures:

KGOV - Grayling Army Airfield (21 nm W)
KGLR - Gaylord Regional Airport (22 nm NW)
KHTL - Roscommon County - Blodgett Memorial Airport (32 nm SW)
Y31 - West Branch Community Airport (34 nm S)
KAPN - Alpena County Regional Airport (34 nm NE)
 
Loc | Ops | Rwys | IFR | FBO | Links
Com | Nav | Svcs | Stats | Notes
Area around 8M8 (Eagle II Airport)
 
Road maps at: MapQuest Bing Google
 
Aerial photo
WARNING: Photo may not be current or correct
Aerial photo of 8M8 (Eagle II Airport)
Do you have a better or more recent aerial photo of Eagle II Airport that you would like to share? If so, please send us your photo.

 
Sectional chart

 
Airport distance calculator
Flying to Eagle II Airport? Find the distance to fly.

From to 8M8

Sunrise and sunset
Times for 01-Dec-2020
 Local
(UTC-5)
 Zulu
(UTC)
Morning civil twilight07:2412:24
Sunrise07:5712:57
Sunset16:5721:57
Evening civil twilight17:3022:30

Current date and time
Zulu (UTC)  01-Dec-2020 10:18:20
Local (UTC-5)  01-Dec-2020 05:18:20
 
METAR
KGOV 
21nm W 
010958Z AUTO 35010KT 10SM OVC014 M05/M07 A2983 RMK AO2 SLP124 T10471074 $
KGLR 
21nm NW 
010953Z AUTO 10SM OVC014 M04/M09 A2983 RMK AO2 SLP121 T10441089
KHTL 
32nm SW 
302053Z AUTO 34017G25KT 10SM OVC018 M02/M07 A2981 RMK AO2 PK WND 35026/2034 SLP111 T10221067 55004
KAPN 
34nm NE 
010954Z AUTO 32014G22KT 10SM OVC017 M03/M06 A2980 RMK AO2 PK WND 33027/0856 SLP102 T10281061 $
KY31 
34nm S 
010955Z AUTO 33011G18KT 10SM OVC020 M03/M08 A2979 RMK AO2 T10351077
KACB 
41nm W 
010955Z AUTO 01006KT 10SM OVC020 M01/M05 A2990 RMK AO2 T10121055
KPZQ 
41nm NE 
010955Z AUTO 33013G21KT 10SM OVC016 M03/M06 A2986 RMK AO2 T10271065
TAF
KAPN 
34nm NE 
010534Z 0106/0206 34014G22KT P6SM OVC022 FM011700 33017G27KT P6SM VCSH BKN022 OVC100 FM011900 33017G27KT P6SM -RASN BKN028 OVC070 FM012100 33017G27KT P6SM VCSH BKN035 OVC100 FM012300 33017G27KT P6SM BKN050 OVC150 FM020100 33016G30KT P6SM SCT180
NOTAMs
Click for the latest NOTAMs
NOTAMs are issued by the DoD/FAA and will open in a separate window not controlled by AirNav.

 

 
 

Would you like to see your business listed on this page?

 If your business provides an interesting product or service to pilots, flight crews, aircraft, or users of the Eagle II Airport, you should consider listing it here.  To start the listing process, click on the button below
 
Add a business
 

Other Pages about Eagle II Airport

Page from the Michigan Airport Directory (PDF)
 
Update a link
 
Copyright © AirNav, LLC. All rights reserved. Privacy Policy  Contact